Location: Beulah Hill
(38.0706°N, 104.9519°W)
Time: 21:08:55
(UTC+00:00)

Daily predictions for brighter satellites

Satellite Brightness Start Highest point End
(mag) Time Altitude Azimuth Time Altitude Azimuth Time Altitude Azimuth
STARLINK 1053 4.0 12:04:01 48° NE 12:04:01 48° NE 12:07:15 10° ESE
STARLINK 1061 3.8 12:06:57 52° NE 12:06:57 52° NE 12:10:19 10° ESE
Okean 1-7 2.9 12:06:29 46° N 12:07:45 89° E 12:12:07 10° S
STARLINK 1067 3.6 12:10:10 57° NE 12:10:10 57° NE 12:13:43 10° ESE
MOS 1-B 4.5 12:04:39 10° NNE 12:10:28 76° ESE 12:16:13 10° S
STARLINK 1058 3.5 12:13:18 61° NNE 12:13:24 61° NE 12:16:58 10° ESE
STARLINK 1043 3.3 12:16:29 63° N 12:16:44 66° NE 12:20:19 10° ESE
Cosmos 2026 Rocket 3.9 12:12:00 10° N 12:18:14 89° E 12:24:32 10° S
Meteor 1-25 Rocket 4.2 12:14:16 10° SSW 12:19:43 55° WNW 12:25:18 10° N
STARLINK 1065 3.3 12:19:35 63° N 12:19:58 71° NE 12:23:34 10° SE
USA 234 3.7 12:15:36 10° NE 12:21:39 42° NNW 12:23:58 31° WNW
STARLINK 1063 3.2 12:22:52 61° NNW 12:23:23 77° NE 12:26:59 10° SE
PAYLOAD B 4.4 12:18:18 10° NNE 12:23:50 76° ESE 12:29:22 10° S
Cosmos 44 3.0 12:19:40 10° SSW 12:24:30 80° WNW 12:29:05 10° NNE
Cosmos 2279 Rocket 4.1 12:19:33 10° S 12:25:43 78° E 12:31:57 10° N
Cosmos 371 Rocket 3.8 12:21:34 10° S 12:26:19 60° ESE 12:31:06 10° NNE
STARLINK 1064 3.2 12:25:59 58° NW 12:26:38 82° NE 12:30:13 10° SE
Cosmos 1603 4.0 12:27:16 32° WNW 12:29:25 46° WSW 12:34:48 10° S
Cosmos 1602 3.7 12:26:10 10° SSW 12:29:53 53° W 12:33:39 10° N
STARLINK 1041 3.1 12:29:11 53° NW 12:29:58 88° NE 12:33:35 10° SE
Meteor 1-14 Rocket 4.3 12:26:00 10° SSW 12:31:52 66° W 12:37:51 10° N
OE (NEXTSAT) 4.3 12:31:28 55° W 12:32:07 75° SSW 12:35:37 10° SE
STARLINK 1038 3.1 12:32:24 48° NW 12:33:18 85° SW 12:36:55 10° SE
ALOS 2.1 12:31:23 10° N 12:36:04 73° WNW 12:40:42 10° SSW
STARLINK 1046 3.1 12:35:36 44° WNW 12:36:39 79° SW 12:40:15 10° SE
Cosmos 1634 Rocket 4.1 12:30:48 10° SSW 12:36:48 51° W 12:42:48 10° N
USA 116 4.2 12:32:38 10° SSE 12:37:03 82° ENE 12:42:01 10° N
SJ-12 4.0 12:34:54 10° N 12:38:53 50° WNW 12:42:50 10° SSW
STARLINK 1039 3.2 12:38:49 40° WNW 12:39:59 73° SW 12:43:35 10° SE
STARLINK 1045 3.2 12:40:36 38° WNW 12:41:50 70° SW 12:45:27 10° SE
Okean 1 3.4 12:39:56 24° NNW 12:42:01 49° W 12:45:51 10° SSW
Meteor 2-4 Rocket 4.0 12:39:28 10° N 12:44:54 65° E 12:50:13 10° SSE
Cosmos 1331 Rocket 4.0 12:40:04 10° SSW 12:45:13 84° ESE 12:50:24 10° NNE
Meteor 1-19 Rocket 4.1 12:42:26 10° NNW 12:47:58 73° W 12:53:37 10° S
Okean 3 3.5 12:45:24 10° N 12:49:36 80° E 12:53:49 10° S
COSMO-SKYMED 1 3.0 12:47:05 10° SSW 12:51:09 39° W 12:54:26 15° NNW
Geosat 4.1 12:51:34 10° SSE 12:56:30 58° WSW 13:01:21 11° NNW
Cosmos 2263 Rocket 3.3 12:56:30 19° WNW 12:58:09 21° NW 13:02:19 10° N
Cosmos 1110 Rocket 3.9 12:54:19 10° SSW 12:59:27 64° WNW 13:04:36 10° NNE
Cosmos 1655 Rocket 4.0 12:54:46 10° N 13:01:01 88° W 13:07:15 10° S
GEOS 3 Rocket 3.8 12:57:11 10° SSE 13:02:08 53° WSW 13:06:41 13° NW
Orbus 7S? 3.3 13:01:45 22° W 13:02:42 28° NW 13:04:57 10° NNE
Cosmos 2221 Rocket 3.7 12:59:40 10° NNW 13:03:57 51° W 13:08:14 10° SSW
FALCON 9 R/B 4.5 12:58:37 14° W 13:06:08 74° S 13:41:50 10° ESE
Cosmos 1536 3.4 13:02:26 10° S 13:06:26 63° E 13:10:28 10° NNE
Cosmos 1733 Rocket 2.9 13:02:40 10° SSW 13:06:57 67° W 13:11:16 10° N
NOSS 3-2 (A) 3.4 13:02:07 10° SSW 13:07:44 82° ESE 13:14:02 10° NE
Cosmos 44 Rocket 4.2 13:04:28 10° SSW 13:09:15 53° ESE 13:13:56 10° NE
STARLINK 1027 4.4 13:09:18 16° W 13:10:32 20° SW 13:12:47 10° S
STARLINK 1028 4.4 13:09:32 16° W 13:10:45 20° SW 13:12:59 10° S
STARLINK 1021 4.4 13:09:44 16° W 13:10:58 20° SW 13:13:11 10° S
STARLINK 1019 4.4 13:09:55 16° W 13:11:12 20° SW 13:13:28 10° S
STARLINK 1012 4.4 13:10:11 15° W 13:11:26 20° SW 13:13:38 10° S
STARLINK 1010 4.4 13:10:24 15° W 13:11:39 19° SW 13:13:51 10° S
STARLINK 1026 4.5 13:10:37 15° W 13:11:53 19° SW 13:14:05 10° S
STARLINK 1013 4.5 13:10:49 15° W 13:12:06 19° SW 13:14:17 10° S
STARLINK 1009 4.5 13:11:03 15° W 13:12:20 19° SW 13:14:31 10° S
STARLINK 1015 4.5 13:11:15 15° W 13:12:32 19° SW 13:14:43 10° S
STARLINK 1016 4.5 13:11:28 15° W 13:12:46 19° SW 13:14:56 10° S
BREEZE-M DEB (TANK) 2.9 13:10:34 10° SW 13:12:55 80° SE 13:17:01 10° NE
STARLINK 1008 4.5 13:11:41 15° W 13:12:59 19° SW 13:15:08 10° S
Okean O Rocket 2.1 13:10:56 10° N 13:15:00 38° WNW 13:19:04 10° SW
STARLINK 1050 4.5 13:15:40 14° WNW 13:18:05 27° SW 13:21:09 10° S
USA 238 DEB 3.6 13:11:44 10° SW 13:18:22 76° WNW 13:25:15 10° NNE
USA 238 3.6 13:11:51 10° SW 13:18:29 77° NW 13:25:21 10° NNE
FENGYUN 3A 4.3 13:15:05 10° N 13:19:49 32° WNW 13:24:31 10° SW
H-2A R/B 2.6 13:20:04 10° N 13:23:50 83° WNW 13:27:37 10° SSW
Helios 1A Rocket 3.7 13:21:00 10° N 13:24:30 29° WNW 13:28:00 10° SW
Cosmos 304 Rocket 3.7 13:21:48 10° SSW 13:26:35 77° WNW 13:31:22 10° NNE
CENTAUR R/B 3.4 13:21:21 10° S 13:26:52 52° ESE 13:33:16 10° NE
Cosmos 1844 Rocket 2.8 13:24:24 10° SW 13:29:50 53° WNW 13:35:17 10° NNE
Cosmos 1346 Rocket 4.4 13:28:25 10° WSW 13:30:26 14° WNW 13:32:30 10° NW
Cosmos 1844 3.7 13:25:20 10° SSW 13:31:05 67° WNW 13:36:51 10° NNE
Meteor 1-13 Rocket 4.2 13:26:09 10° NNW 13:31:38 65° W 13:37:11 10° S
Envisat 3.8 13:29:56 10° NNE 13:34:57 57° E 13:39:55 10° S
CZ-2C R/B 4.4 13:31:37 10° SSE 13:36:15 62° ENE 13:40:58 10° N
CZ-4B R/B 3.9 13:31:20 10° N 13:36:19 34° WNW 13:41:19 10° SW
Okean-O 3.3 13:32:14 10° NNE 13:36:39 62° E 13:41:01 10° S
Hubble Space Telescope 3.6 13:35:51 10° SSW 13:37:57 14° SSE 13:40:02 10° SE
Cosmos 1782 Rocket 4.5 13:35:45 10° S 13:40:05 55° E 13:44:24 10° NNE
Cosmos 1674 Rocket 3.7 13:36:03 10° NNW 13:40:16 53° W 13:44:27 10° S
Feng Yun 1-1 Rocket 4.3 13:34:45 10° N 13:40:24 79° WNW 13:46:10 10° SSW
